Weather History for Lander, WY

Change the Weather History Date:

Sunday, November 24, 2013

  Actual Average Record
Temperature  
Mean Temperature 18 °F 26 °F  
Max Temperature 31 °F 38 °F 65 °F (1933)
Min Temperature 4 °F 15 °F -12 °F (1895)
Degree Days  
Heating Degree Days 47 39  
Month to date heating degree days 754 771  
Since 1 July heating degree days 1699 1632  
Cooling Degree Days 0 0  
Month to date cooling degree days 0 0  
Year to date cooling degree days 743 472  
Moisture  
Dew Point 11 °F    
Average Humidity 77    
Maximum Humidity 96    
Minimum Humidity 58    
Precipitation  
Precipitation 0.00 in 0.03 in 0.53 in (1944)
Month to date precipitation 0.13 0.71  
Year to date precipitation 14.85 11.93  
Sea Level Pressure  
Sea Level Pressure 30.30 in    
Wind  
Wind Speed 3 mph (WNW)    
Max Wind Speed 10 mph    
Max Gust Speed 11 mph    
Visibility 10 miles    
Events      
T = Trace of Precipitation, MM = Missing Value Source: NWS Daily Summary

Daily Weather History Graph

Daily Weather History Graph

Search for Another Location

Airport:

Trip Planner

Search our weather history database for the weather conditions in past years. The results will help you decide how hot, cold, wet, or windy it might be!

Date:

Astronomy

Nov. 24, 2013 Rise Set
Actual Time 7:18 AM MST 4:44 PM MST
Civil Twilight 6:47 AM MST 5:16 PM MST
Nautical Twilight 6:12 AM MST 5:50 PM MST
Astronomical Twilight 5:38 AM MST 6:24 PM MST
Moon 11:18 PM MST (11/24) 12:03 PM MST (11/24)
Length of Visible Light 10h 28m
Length of Day
9h 26m
Waning Gibbous, 60% of the Moon is Illuminated
Nov 24
Waning Gibbous
Nov 25
Last Quarter
Dec 2
New
Dec 9
First Quarter
Dec 17
Full

Hourly Weather History & Observations

Time (MST) Temp. Windchill Dew Point Humidity Pressure Visibility Wind Dir Wind Speed Gust Speed Precip Events Conditions
12:53 AM 10.9 °F - 6.1 °F 81% 30.40 in 10.0 mi Calm Calm - N/A   Clear
1:53 AM 7.0 °F -3.3 °F 3.9 °F 87% 30.38 in 8.0 mi NW 5.8 mph - N/A   Clear
2:53 AM 9.0 °F -3.2 °F 5.0 °F 84% 30.37 in 10.0 mi NW 8.1 mph - N/A   Clear
3:53 AM 10.0 °F - 5.0 °F 80% 30.35 in 10.0 mi Calm Calm - N/A   Clear
4:53 AM 10.9 °F - 6.1 °F 81% 30.33 in 10.0 mi Calm Calm - N/A   Clear
5:53 AM 6.1 °F -0.9 °F 1.9 °F 83% 30.35 in 10.0 mi WSW 3.5 mph - N/A   Clear
6:53 AM 5.0 °F -2.1 °F 3.0 °F 92% 30.38 in 9.0 mi SE 3.5 mph - N/A   Clear
7:53 AM 8.1 °F 1.4 °F 5.0 °F 87% 30.36 in 8.0 mi SE 3.5 mph - N/A   Clear
8:53 AM 8.1 °F 1.4 °F 5.0 °F 87% 30.35 in 10.0 mi SE 3.5 mph - N/A   Clear
9:53 AM 14.0 °F 8.2 °F 8.1 °F 77% 30.32 in 9.0 mi West 3.5 mph - N/A   Clear
10:53 AM 19.0 °F 13.9 °F 10.9 °F 71% 30.30 in 10.0 mi North 3.5 mph - N/A   Unknown
11:53 AM 23.0 °F - 12.0 °F 63% 30.25 in 10.0 mi Calm Calm - N/A   Clear
12:53 PM 27.0 °F - 15.1 °F 61% 30.22 in 10.0 mi Calm Calm - N/A   Clear
1:53 PM 28.9 °F - 15.1 °F 56% 30.21 in 10.0 mi Calm Calm - N/A   Clear
2:53 PM 30.0 °F 25.2 °F 17.1 °F 59% 30.18 in 10.0 mi ESE 4.6 mph - N/A   Clear
3:53 PM 30.0 °F 25.2 °F 17.1 °F 59% 30.20 in 10.0 mi WNW 4.6 mph - N/A   Clear
4:53 PM 25.0 °F 16.3 °F 16.0 °F 69% 30.22 in 9.0 mi WSW 8.1 mph - N/A   Clear
5:53 PM 24.1 °F - 17.1 °F 75% 30.26 in 10.0 mi Calm Calm - N/A   Clear
6:53 PM 19.9 °F 10.1 °F 15.1 °F 81% 30.29 in 10.0 mi East 8.1 mph - N/A   Clear
7:53 PM 23.0 °F - 16.0 °F 74% 30.27 in 10.0 mi Calm Calm - N/A   Clear
8:53 PM 19.0 °F 13.9 °F 14.0 °F 81% 30.30 in 9.0 mi SE 3.5 mph - N/A   Clear
9:53 PM 18.0 °F 11.1 °F 14.0 °F 84% 30.31 in 7.0 mi NNW 4.6 mph - N/A   Partly Cloudy
10:53 PM 19.9 °F 12.1 °F 14.0 °F 78% 30.29 in 10.0 mi NW 5.8 mph - N/A   Scattered Clouds
11:53 PM 21.0 °F - 15.1 °F 78% 30.29 in 10.0 mi Calm Calm - N/A   Mostly Cloudy